Hourly Data Report for October 26, 2014

All times are specified in Local Standard Time (LST). Add 1 hour to adjust for Daylight Saving Time where and when it is observed.

POND INLET A
NUNAVUT

72°41'22.000" N
77°58'08.000" W
61.60 m
2403206
71095
YIO

Download Data

Hourly Data (October 2014)
Hourly Data Report for October 26, 2014
Temp Definition
°C
Dew Point Temp Definition
°C
Rel Hum Definition
%
Wind Dir Definition
10's deg

Wind Spd Definition
km/h
Visibility Definition
km
Stn Press Definition
kPa
Hmdx Definition


Wind Chill Definition


Weather Definition


TIME
00:00 Legend Double Dagger -14.1 -16.4 83 16 21 16.1 101.34   -23 LegendNANA
01:00 Legend Double Dagger -13.4 -15.7 83 15 11 16.1 101.33   -20 LegendNANA
02:00 Legend Double Dagger -13.3 -15.3 85 16 13 16.1 101.34   -20 Snow
03:00 Legend Double Dagger -13.6 -15.6 85 16 15 16.1 101.31   -21 LegendNANA
04:00 Legend Double Dagger -14.1 -16.0 86 16 17 16.1 101.30   -22 LegendNANA
05:00 Legend Double Dagger -13.7 -15.6 86 15 13 16.1 101.29   -21 LegendNANA
06:00 Legend Double Dagger -13.7 -15.6 86 15 13 16.1 101.30   -21 Snow
07:00 Legend Double Dagger -13.1 -15.0 86 15 15 16.1 101.29   -21 LegendNANA
08:00 Legend Double Dagger -13.0 -14.9 86 16 15 16.1 101.28   -20 Snow
09:00 Legend Double Dagger -13.3 -15.0 87 15 18 16.1 101.27   -22 Snow
10:00 Legend Double Dagger -13.1 -14.8 87 16 17 16.1 101.28   -21 Snow
11:00 Legend Double Dagger -12.8 -14.5 87 15 15 16.1 101.27   -20 Snow
12:00 Legend Double Dagger -13.0 -14.6 88 16 17 16.1 101.29   -21 Snow
13:00 Legend Double Dagger -12.9 -14.4 89 15 17 16.1 101.31   -21 Snow
14:00 Legend Double Dagger -12.6 -14.3 87 15 15 6.4 101.31   -20 Snow
15:00 Legend Double Dagger -13.3 -15.3 85 15 13 16.1 101.33   -20 Snow
16:00 Legend Double Dagger -13.8 -15.8 85 15 15 16.1 101.33   -21 Snow
17:00 Legend Double Dagger -15.3 -17.1 86 14 17 16.1 101.34   -24 LegendNANA
18:00 Legend Double Dagger -15.7 -17.3 88 14 17 16.1 101.35   -24 LegendNANA
19:00 Legend Double Dagger -14.2 -15.7 89 15 13 16.1 101.34   -21 LegendNANA
20:00 Legend Double Dagger -14.4 -16.1 87 15 15 16.1 101.34   -22 LegendNANA
21:00 Legend Double Dagger -14.8 -16.7 86 15 13 16.1 101.35   -22 LegendNANA
22:00 Legend Double Dagger -13.9 -15.5 88 14 11 16.1 101.34   -20 LegendNANA
23:00 Legend Double Dagger -13.6 -15.3 87 16 13 16.1 101.33   -21 LegendNANA

Notes on Data Quality.

Legend

  • E = Estimated
  • M = Missing
  • NA = Not Available
  • ‡ = Partner data that is not subject to review by the National Climate Archives
Date modified: